User: anonymous   Login
Location: Arrodets-la-Barthe
(43.0306°N, 0.2829°E)
Time: 03:38:01
(UTC+00:00)
Language:

CZ-4B R/B - Orbit

View from above orbital plane
View from above orbital plane
View from above satellite
View from above satellite

Ground track
Ground track

The orbit data is extracted from the following two-line orbital elements,

1 27432U 02024C   22021.80792956 -.00000017  00000-0  15300-4 0  9991
2 27432  99.0749  44.7407 0049924 331.6850 201.6890 14.14122839 16174
Epoch (UTC): 21 January 2022 19:23:25
Eccentricity: 0.0049924
inclination: 99.0749°
perigee height: 809 km
apogee height: 881 km
right ascension of ascending node: 44.7407°
argument of perigee: 331.6850°
revolutions per day: 14.14122839
mean anomaly at epoch: 201.6890°
orbit number at epoch: 1617

The dashed part of the orbit path shows where the satellite is in the earth's shadow,  

DLR